Tracking 19192 objects as of 19-Jun-2018
HD Live streaming from Space Station
objects crossing your sky now

CZ-3A DEB

Track CZ-3A DEB now!


NORAD ID: 35557
Int'l Code: 2007-003R
Perigee: 379.8 km
Apogee: 28,836.5 km
Inclination: 22.6 °
Period: 504.0 minutes
Semi major axis: 20979 km
RCS: 0.1574 m2 (medium)
Launch date: February 2, 2007
Source: People's Republic of China (PRC)
Launch site: Xichang Space Center, China (XSC)

Note: This is SATELLITE DEBRIS
aabbcc
Your satellite tracking list
Your tracking list is empty




NASA's NSSDC Master Catalog

Two Line Element Set (TLE):
1 35557U 07003R   18169.17910773  .00000045  00000-0  76222-4 0  9997
2 35557  22.6319 203.9228 6782141 109.7272 331.1089  2.85707210 89838
Source of the keplerian elements: AFSPC